Rassvet-2 No. 2

operational
NORAD ID: 59780 Int'l Des: 2024-092 Owner: B1440 Country: RU
LEOCIRCULARRETROGRADESSO

About Rassvet-2 No. 2

Description loading...

Live Position

Loading 3D Globe...

Upcoming Passes

Altitude History

Altitude vs Time

uPlot chart will show altitude changes over time

Two-Line Element Set

1 59780U 24092H 25315.33109736 .00000530 00000-0 21490-3 0 9991
2 59780 98.6511 69.9039 0013189 128.0306 232.2070 14.31711820 77726
Epoch: Nov 11, 2025 • Age: 7 hours

Current Status

Altitude 794.6 km
Velocity 7.45 km/s
Sub-Earth Point 0.04°N, 159.35°E
Launch Date May 16, 2024
Age 1.4 years
Type other

Technical Details

Classification Payload
Mass 200.00 kg
Dry Mass 200.00 kg
Total Mass 200.00 kg
Length 1.20 m
Diameter 0.60 m
Span 5.00 m
Shape Box+2 pan
Manufacturer B1440
Bus Type Rassvet-2
Phase Status In Orbit
Owner/State B1440/RU

Large Constellations

Loading constellations...